VLG89JH LEBL-LIRF

Flight info

Callsign VLG89JH
Flight time 1h 18m
Altitude 39000
Route DIPES N725 OSPOK DCT NOLVI DCT ORKUM DCT ELSAG DCT ALG DCT ROMPO DCT RUXOP DCT BATOX DCT TINTO L5 VALMA
Aircraft A319/M-SDE3FGHIRWY/LB1

Departure

Time 2026-05-07 13:56
Airport Josep Tarradellas Barcelona-El Prat Airport (LEBL)

Arrival

Time 2026-05-07 15:14
Airport Rome–Fiumicino Leonardo da Vinci International Airport (LIRF)
Time Latitude Longitude Altitude Speed Heading
2026-05-07 13:33 41.29099 2.07861 18 ft 0 kts 154°
2026-05-07 13:47 41.29100 2.07860 18 ft 1 kts 154°
2026-05-07 13:48 41.29122 2.07846 18 ft 4 kts 154°
2026-05-07 13:48 41.29127 2.07843 18 ft 0 kts 154°
2026-05-07 13:49 41.29136 2.07837 18 ft 3 kts 154°
2026-05-07 13:49 41.29153 2.07827 18 ft 3 kts 154°
2026-05-07 13:49 41.29169 2.07814 18 ft 3 kts 101°
2026-05-07 13:50 41.29168 2.07798 20 ft 0 kts 58°
2026-05-07 13:51 41.29169 2.07799 20 ft 1 kts 57°
2026-05-07 13:52 41.29187 2.07824 19 ft 7 kts 46°
2026-05-07 13:52 41.29222 2.07890 18 ft 11 kts 63°
2026-05-07 13:52 41.29262 2.08001 18 ft 16 kts 64°
2026-05-07 13:52 41.29311 2.08147 20 ft 19 kts 67°
2026-05-07 13:53 41.29361 2.08307 18 ft 18 kts 70°
2026-05-07 13:53 41.29289 2.08427 18 ft 20 kts 154°
2026-05-07 13:53 41.29151 2.08427 18 ft 22 kts 200°
2026-05-07 13:53 41.29002 2.08357 18 ft 23 kts 199°
2026-05-07 13:54 41.28848 2.08287 18 ft 23 kts 198°
2026-05-07 13:54 41.28703 2.08219 18 ft 20 kts 209°
2026-05-07 13:54 41.28630 2.08056 18 ft 21 kts 245°
2026-05-07 13:54 41.28566 2.07868 20 ft 23 kts 245°
2026-05-07 13:55 41.28503 2.07683 19 ft 17 kts 245°
2026-05-07 13:55 41.28429 2.07660 19 ft 14 kts 122°
2026-05-07 13:55 41.28414 2.07794 18 ft 15 kts 94°
2026-05-07 13:55 41.28420 2.07942 18 ft 17 kts 84°
2026-05-07 13:56 41.28461 2.08117 20 ft 28 kts 66°
2026-05-07 13:56 41.28655 2.08674 20 ft 104 kts 65°
2026-05-07 13:56 41.29046 2.09827 75 ft 159 kts 67°
2026-05-07 13:56 41.29433 2.11153 847 ft 153 kts 80°
2026-05-07 13:57 41.29407 2.12556 1579 ft 151 kts 96°
2026-05-07 13:57 41.29270 2.13981 2154 ft 164 kts 98°
2026-05-07 13:57 41.29101 2.15584 2561 ft 186 kts 99°
2026-05-07 13:57 41.28910 2.17380 3069 ft 203 kts 99°
2026-05-07 13:58 41.28714 2.19270 3889 ft 209 kts 99°
2026-05-07 13:58 41.28516 2.21204 4723 ft 214 kts 98°
2026-05-07 13:58 41.28318 2.23185 5562 ft 217 kts 98°
2026-05-07 13:58 41.28119 2.25198 6390 ft 222 kts 98°
2026-05-07 13:59 41.27984 2.26553 6930 ft 224 kts 98°
2026-05-07 13:59 41.27779 2.28632 7722 ft 230 kts 98°
2026-05-07 13:59 41.27570 2.30760 8522 ft 234 kts 98°
2026-05-07 13:59 41.27346 2.32974 9081 ft 253 kts 98°
2026-05-07 14:00 41.27092 2.35393 9535 ft 276 kts 98°
2026-05-07 14:00 41.26813 2.38008 10108 ft 293 kts 99°
2026-05-07 14:00 41.26512 2.40794 10502 ft 317 kts 99°
2026-05-07 14:00 41.26187 2.43778 11056 ft 332 kts 99°
2026-05-07 14:01 41.25857 2.46843 11859 ft 337 kts 99°
2026-05-07 14:01 41.25526 2.49944 12690 ft 341 kts 99°
2026-05-07 14:01 41.25338 2.53116 13473 ft 347 kts 90°
2026-05-07 14:01 41.25663 2.56323 14223 ft 354 kts 77°
2026-05-07 14:02 41.26509 2.59375 14939 ft 360 kts 64°
2026-05-07 14:02 41.27878 2.62246 15642 ft 366 kts 55°
2026-05-07 14:02 41.29375 2.64966 16332 ft 371 kts 50°
2026-05-07 14:02 41.31216 2.67395 16984 ft 376 kts 38°
2026-05-07 14:03 41.33410 2.69306 17640 ft 380 kts 26°
2026-05-07 14:03 41.35863 2.70655 18284 ft 383 kts 18°
2026-05-07 14:03 41.38382 2.71868 18926 ft 387 kts 19°
2026-05-07 14:03 41.40811 2.73463 19529 ft 394 kts 34°
2026-05-07 14:04 41.42793 2.76004 20087 ft 400 kts 54°
2026-05-07 14:04 41.44073 2.79291 20671 ft 402 kts 73°
2026-05-07 14:04 41.44511 2.82960 21224 ft 403 kts 93°
2026-05-07 14:04 41.44051 2.86613 21756 ft 401 kts 113°
2026-05-07 14:05 41.42753 2.89865 22299 ft 397 kts 130°
2026-05-07 14:05 41.41091 2.92827 22844 ft 401 kts 131°
2026-05-07 14:05 41.39403 2.95802 23394 ft 404 kts 131°
2026-05-07 14:05 41.37697 2.98801 23911 ft 408 kts 132°
2026-05-07 14:06 41.35976 3.01832 24409 ft 412 kts 132°
2026-05-07 14:06 41.34242 3.04893 24887 ft 416 kts 132°
2026-05-07 14:06 41.32500 3.07979 25355 ft 419 kts 132°
2026-05-07 14:06 41.30741 3.11096 25817 ft 422 kts 132°
2026-05-07 14:07 41.28969 3.14232 26262 ft 425 kts 132°
2026-05-07 14:07 41.27184 3.17384 26698 ft 429 kts 133°
2026-05-07 14:07 41.25381 3.20558 27137 ft 431 kts 133°
2026-05-07 14:07 41.23567 3.23747 27546 ft 434 kts 133°
2026-05-07 14:08 41.21764 3.26913 27942 ft 437 kts 134°
2026-05-07 14:08 41.19922 3.30149 28349 ft 440 kts 134°
2026-05-07 14:08 41.18072 3.33397 28756 ft 442 kts 134°
2026-05-07 14:08 41.16208 3.36664 29141 ft 445 kts 134°
2026-05-07 14:09 41.14329 3.39955 29520 ft 448 kts 134°
2026-05-07 14:09 41.12445 3.43257 29883 ft 450 kts 134°
2026-05-07 14:09 41.10542 3.46587 30253 ft 453 kts 134°
2026-05-07 14:09 41.08638 3.49924 30606 ft 456 kts 134°
2026-05-07 14:10 41.06950 3.53535 30926 ft 468 kts 123°
2026-05-07 14:10 41.05703 3.57568 31255 ft 479 kts 113°
2026-05-07 14:10 41.04886 3.61887 31562 ft 486 kts 109°
2026-05-07 14:10 41.04120 3.66254 31916 ft 487 kts 109°
2026-05-07 14:11 41.03350 3.70614 32346 ft 486 kts 109°
2026-05-07 14:11 41.02584 3.74913 32761 ft 485 kts 109°
2026-05-07 14:11 41.01804 3.79256 33172 ft 485 kts 109°
2026-05-07 14:11 41.01018 3.83594 33573 ft 484 kts 110°
2026-05-07 14:12 41.00230 3.87929 33995 ft 484 kts 110°
2026-05-07 14:12 40.99444 3.92257 34414 ft 483 kts 110°
2026-05-07 14:12 40.98657 3.96572 34815 ft 482 kts 110°
2026-05-07 14:12 40.97871 4.00880 35182 ft 481 kts 110°
2026-05-07 14:13 40.97084 4.05193 35460 ft 483 kts 110°
2026-05-07 14:13 40.96292 4.09520 35720 ft 485 kts 110°
2026-05-07 14:13 40.95497 4.13862 36017 ft 485 kts 110°
2026-05-07 14:13 40.94701 4.18201 36312 ft 485 kts 110°
2026-05-07 14:14 40.93905 4.22540 36584 ft 486 kts 110°
2026-05-07 14:14 40.93107 4.26878 36870 ft 486 kts 110°
2026-05-07 14:14 40.92309 4.31210 36968 ft 482 kts 110°
2026-05-07 14:15 40.90733 4.39742 36983 ft 474 kts 111°
2026-05-07 14:15 40.89155 4.48182 36980 ft 473 kts 111°
2026-05-07 14:16 40.87574 4.56616 36979 ft 473 kts 111°
2026-05-07 14:16 40.85995 4.65071 36983 ft 475 kts 110°
2026-05-07 14:17 40.85043 4.73796 36976 ft 482 kts 103°
2026-05-07 14:17 40.84238 4.82580 36971 ft 482 kts 104°
2026-05-07 14:18 40.83413 4.91375 36965 ft 483 kts 104°
2026-05-07 14:18 40.82583 5.00186 36960 ft 484 kts 104°
2026-05-07 14:19 40.81750 5.08957 36961 ft 485 kts 104°
2026-05-07 14:19 40.80905 5.17791 36960 ft 486 kts 104°
2026-05-07 14:20 40.80054 5.26651 36960 ft 487 kts 105°
2026-05-07 14:20 40.79192 5.35517 36960 ft 488 kts 105°
2026-05-07 14:21 40.78328 5.44399 36960 ft 489 kts 105°
2026-05-07 14:21 40.77448 5.53300 36959 ft 490 kts 105°
2026-05-07 14:22 40.76550 5.62221 36957 ft 491 kts 105°
2026-05-07 14:22 40.75658 5.71156 36956 ft 491 kts 106°
2026-05-07 14:23 40.74763 5.80042 36955 ft 493 kts 105°
2026-05-07 14:23 40.73854 5.89014 36950 ft 494 kts 106°
2026-05-07 14:24 40.72926 5.97990 36949 ft 495 kts 106°
2026-05-07 14:24 40.71990 6.06989 36943 ft 496 kts 107°
2026-05-07 14:25 40.71042 6.16017 36939 ft 499 kts 107°
2026-05-07 14:25 40.70085 6.25096 36938 ft 501 kts 106°
2026-05-07 14:26 40.69122 6.34196 36940 ft 502 kts 106°
2026-05-07 14:26 40.68148 6.43290 36944 ft 502 kts 106°
2026-05-07 14:27 40.67172 6.52403 36950 ft 502 kts 106°
2026-05-07 14:27 40.66192 6.61462 36947 ft 502 kts 106°
2026-05-07 14:28 40.65197 6.70585 36948 ft 503 kts 107°
2026-05-07 14:28 40.64183 6.79710 36949 ft 504 kts 107°
2026-05-07 14:29 40.63172 6.88840 36951 ft 504 kts 106°
2026-05-07 14:29 40.62158 6.97985 36948 ft 504 kts 107°
2026-05-07 14:30 40.61131 7.07117 36938 ft 505 kts 107°
2026-05-07 14:30 40.60088 7.16211 36933 ft 507 kts 107°
2026-05-07 14:31 40.59032 7.25382 36931 ft 508 kts 107°
2026-05-07 14:31 40.57975 7.34594 36930 ft 510 kts 107°
2026-05-07 14:32 40.56908 7.43826 36928 ft 512 kts 106°
2026-05-07 14:32 40.56826 7.53330 36919 ft 528 kts 88°
2026-05-07 14:33 40.57685 7.62941 36921 ft 530 kts 88°
2026-05-07 14:33 40.58510 7.72597 36921 ft 532 kts 88°
2026-05-07 14:34 40.59333 7.82289 36925 ft 533 kts 88°
2026-05-07 14:34 40.60152 7.92002 36925 ft 535 kts 88°
2026-05-07 14:35 40.60946 8.01672 36926 ft 535 kts 88°
2026-05-07 14:35 40.61754 8.11431 36931 ft 537 kts 88°
2026-05-07 14:36 40.62612 8.21197 36939 ft 539 kts 83°
2026-05-07 14:36 40.64795 8.30647 36939 ft 540 kts 67°
2026-05-07 14:37 40.67695 8.39772 36948 ft 540 kts 67°
2026-05-07 14:37 40.72001 8.53474 36967 ft 538 kts 68°
2026-05-07 14:38 40.74850 8.62592 36972 ft 537 kts 68°
2026-05-07 14:38 40.77687 8.71676 36974 ft 535 kts 67°
2026-05-07 14:39 40.80512 8.80740 36976 ft 533 kts 67°
2026-05-07 14:39 40.83320 8.89780 36981 ft 531 kts 67°
2026-05-07 14:40 40.86107 8.98809 36981 ft 530 kts 67°
2026-05-07 14:40 40.88853 9.07761 36987 ft 528 kts 67°
2026-05-07 14:41 40.91615 9.16739 36987 ft 527 kts 67°
2026-05-07 14:41 40.94360 9.25709 36987 ft 525 kts 68°
2026-05-07 14:42 40.97083 9.34671 36985 ft 524 kts 68°
2026-05-07 14:42 40.99802 9.43616 36979 ft 523 kts 68°
2026-05-07 14:43 41.02518 9.52552 36979 ft 522 kts 68°
2026-05-07 14:43 41.05211 9.61473 36979 ft 521 kts 68°
2026-05-07 14:44 41.07890 9.70384 36980 ft 520 kts 68°
2026-05-07 14:44 41.10560 9.79287 36985 ft 519 kts 68°
2026-05-07 14:45 41.13198 9.88201 36888 ft 525 kts 68°
2026-05-07 14:45 41.14533 9.92747 36644 ft 531 kts 68°
2026-05-07 14:45 41.15868 9.97315 36335 ft 529 kts 68°
2026-05-07 14:46 41.17194 10.01862 35700 ft 528 kts 68°
2026-05-07 14:46 41.18519 10.06377 35184 ft 523 kts 68°
2026-05-07 14:46 41.19843 10.10862 34633 ft 519 kts 68°
2026-05-07 14:46 41.21164 10.15316 34090 ft 516 kts 68°
2026-05-07 14:47 41.22480 10.19740 33547 ft 513 kts 68°
2026-05-07 14:47 41.23346 10.22648 33192 ft 510 kts 68°
2026-05-07 14:47 41.24644 10.27012 32655 ft 506 kts 68°
2026-05-07 14:47 41.26344 10.32753 31948 ft 502 kts 68°
2026-05-07 14:48 41.27611 10.37053 31424 ft 498 kts 69°
2026-05-07 14:48 41.28869 10.41331 30906 ft 495 kts 69°
2026-05-07 14:48 41.30113 10.45577 30395 ft 491 kts 69°
2026-05-07 14:48 41.30944 10.48423 30046 ft 488 kts 69°
2026-05-07 14:49 41.32167 10.52613 29554 ft 484 kts 69°
2026-05-07 14:49 41.33364 10.56718 29070 ft 479 kts 69°
2026-05-07 14:49 41.34561 10.60833 28594 ft 475 kts 69°
2026-05-07 14:49 41.35744 10.64913 28118 ft 470 kts 69°
2026-05-07 14:50 41.36914 10.68953 27665 ft 465 kts 69°
2026-05-07 14:50 41.38087 10.73001 27215 ft 460 kts 69°
2026-05-07 14:50 41.39216 10.76907 26788 ft 456 kts 69°
2026-05-07 14:50 41.40349 10.80826 26352 ft 451 kts 69°
2026-05-07 14:51 41.41470 10.84696 25924 ft 446 kts 69°
2026-05-07 14:51 41.42583 10.88538 25471 ft 443 kts 70°
2026-05-07 14:51 41.43682 10.92351 25014 ft 439 kts 70°
2026-05-07 14:51 41.44769 10.96129 24552 ft 435 kts 70°
2026-05-07 14:52 41.45841 10.99880 24090 ft 431 kts 70°
2026-05-07 14:52 41.46900 11.03600 23618 ft 428 kts 70°
2026-05-07 14:52 41.47953 11.07292 23139 ft 425 kts 70°
2026-05-07 14:52 41.48999 11.10958 22667 ft 421 kts 70°
2026-05-07 14:53 41.50032 11.14601 22188 ft 418 kts 71°
2026-05-07 14:53 41.51051 11.18219 21728 ft 415 kts 71°
2026-05-07 14:53 41.52057 11.21815 21259 ft 412 kts 71°
2026-05-07 14:53 41.53054 11.25382 20792 ft 408 kts 71°
2026-05-07 14:54 41.54040 11.28916 20339 ft 405 kts 71°
2026-05-07 14:54 41.55018 11.32421 19894 ft 401 kts 71°
2026-05-07 14:54 41.55984 11.35890 19450 ft 397 kts 71°
2026-05-07 14:54 41.56943 11.39335 19008 ft 393 kts 71°
2026-05-07 14:55 41.57892 11.42740 18579 ft 389 kts 71°
2026-05-07 14:55 41.58831 11.46079 18400 ft 378 kts 71°
2026-05-07 14:55 41.59755 11.49337 18015 ft 374 kts 71°
2026-05-07 14:55 41.60678 11.52583 17606 ft 371 kts 70°
2026-05-07 14:56 41.61589 11.55796 17203 ft 368 kts 71°
2026-05-07 14:56 41.62530 11.58965 16810 ft 366 kts 64°
2026-05-07 14:56 41.63981 11.61729 16409 ft 364 kts 44°
2026-05-07 14:56 41.65991 11.63724 16021 ft 358 kts 24°
2026-05-07 14:57 41.68208 11.65060 15772 ft 351 kts 21°
2026-05-07 14:57 41.70433 11.66376 15520 ft 348 kts 21°
2026-05-07 14:57 41.72641 11.67688 15272 ft 346 kts 22°
2026-05-07 14:57 41.74834 11.68996 15021 ft 344 kts 22°
2026-05-07 14:58 41.77011 11.70295 14769 ft 342 kts 22°
2026-05-07 14:58 41.79176 11.71589 14519 ft 340 kts 22°
2026-05-07 14:58 41.81331 11.72878 14272 ft 338 kts 22°
2026-05-07 14:58 41.83475 11.74160 14017 ft 336 kts 22°
2026-05-07 14:59 41.85604 11.75430 13763 ft 334 kts 22°
2026-05-07 14:59 41.87722 11.76694 13437 ft 332 kts 22°
2026-05-07 14:59 41.89827 11.77951 13065 ft 330 kts 22°
2026-05-07 14:59 41.91919 11.79204 12751 ft 326 kts 22°
2026-05-07 15:00 41.93984 11.80443 12556 ft 325 kts 22°
2026-05-07 15:00 41.96040 11.81678 12356 ft 323 kts 22°
2026-05-07 15:00 41.98084 11.82903 12145 ft 321 kts 22°
2026-05-07 15:00 42.00093 11.84107 11875 ft 319 kts 22°
2026-05-07 15:01 42.02109 11.85320 11599 ft 316 kts 23°
2026-05-07 15:01 42.04098 11.86518 11325 ft 310 kts 23°
2026-05-07 15:01 42.06052 11.87687 11043 ft 305 kts 22°
2026-05-07 15:01 42.08069 11.88374 10857 ft 294 kts
2026-05-07 15:02 42.10065 11.88236 10736 ft 282 kts 347°
2026-05-07 15:02 42.11918 11.87504 10583 ft 273 kts 341°
2026-05-07 15:02 42.13719 11.86732 10277 ft 271 kts 341°
2026-05-07 15:02 42.15519 11.85964 9959 ft 270 kts 341°
2026-05-07 15:03 42.17309 11.85200 9629 ft 268 kts 341°
2026-05-07 15:03 42.19081 11.84442 9303 ft 267 kts 341°
2026-05-07 15:03 42.20909 11.83649 8980 ft 281 kts 341°
2026-05-07 15:03 42.22757 11.82866 8667 ft 276 kts 345°
2026-05-07 15:04 42.24652 11.82837 8355 ft 272 kts 14°
2026-05-07 15:04 42.26308 11.83996 8029 ft 269 kts 42°
2026-05-07 15:04 42.27409 11.85991 7718 ft 264 kts 66°
2026-05-07 15:04 42.27808 11.88367 7498 ft 260 kts 90°
2026-05-07 15:05 42.27475 11.90735 7281 ft 257 kts 114°
2026-05-07 15:05 42.26496 11.92687 7027 ft 255 kts 137°
2026-05-07 15:05 42.25039 11.94023 6779 ft 254 kts 152°
2026-05-07 15:05 42.23499 11.95186 6557 ft 254 kts 151°
2026-05-07 15:06 42.21962 11.96347 6313 ft 253 kts 151°
2026-05-07 15:06 42.20430 11.97505 6036 ft 251 kts 151°
2026-05-07 15:06 42.18906 11.98655 5760 ft 251 kts 151°
2026-05-07 15:06 42.17389 11.99801 5506 ft 250 kts 151°
2026-05-07 15:07 42.15877 12.00950 5255 ft 249 kts 151°
2026-05-07 15:07 42.14368 12.02096 4974 ft 248 kts 150°
2026-05-07 15:07 42.12862 12.03239 4698 ft 247 kts 150°
2026-05-07 15:07 42.11472 12.04587 4448 ft 245 kts 137°
2026-05-07 15:08 42.10320 12.06235 4213 ft 238 kts 132°
2026-05-07 15:08 42.09210 12.07866 3940 ft 234 kts 133°
2026-05-07 15:08 42.08116 12.09467 3663 ft 231 kts 133°
2026-05-07 15:08 42.07055 12.11016 3412 ft 226 kts 132°
2026-05-07 15:09 42.05997 12.12561 3152 ft 223 kts 132°
2026-05-07 15:09 42.04969 12.14064 3029 ft 213 kts 132°
2026-05-07 15:09 42.03997 12.15489 3030 ft 200 kts 132°
2026-05-07 15:09 42.03070 12.16851 3030 ft 195 kts 132°
2026-05-07 15:10 42.02160 12.18181 3033 ft 192 kts 133°
2026-05-07 15:10 42.01076 12.19205 3046 ft 191 kts 158°
2026-05-07 15:10 41.99806 12.19759 3021 ft 192 kts 162°
2026-05-07 15:10 41.98533 12.20297 2834 ft 191 kts 162°
2026-05-07 15:11 41.97264 12.20829 2607 ft 191 kts 163°
2026-05-07 15:11 41.95999 12.21360 2364 ft 191 kts 163°
2026-05-07 15:11 41.94736 12.21892 2112 ft 190 kts 163°
2026-05-07 15:11 41.93501 12.22412 1851 ft 182 kts 164°
2026-05-07 15:12 41.92325 12.22907 1627 ft 174 kts 165°
2026-05-07 15:12 41.91233 12.23367 1409 ft 155 kts 165°
2026-05-07 15:12 41.90246 12.23781 1206 ft 143 kts 165°
2026-05-07 15:12 41.89312 12.24173 1024 ft 138 kts 165°
2026-05-07 15:13 41.88400 12.24557 846 ft 136 kts 165°
2026-05-07 15:13 41.87499 12.24943 663 ft 135 kts 165°
2026-05-07 15:13 41.86604 12.25317 476 ft 134 kts 166°
2026-05-07 15:13 41.85711 12.25683 301 ft 133 kts 165°
2026-05-07 15:14 41.84838 12.26056 117 ft 132 kts 164°
2026-05-07 15:14 41.83979 12.26412 15 ft 118 kts 163°
2026-05-07 15:14 41.83340 12.26677 15 ft 71 kts 163°
2026-05-07 15:14 41.82942 12.26839 17 ft 48 kts 166°
2026-05-07 15:15 41.82704 12.26865 18 ft 28 kts 186°
2026-05-07 15:15 41.82538 12.26821 16 ft 22 kts 194°
2026-05-07 15:15 41.82380 12.26779 12 ft 24 kts 184°
2026-05-07 15:15 41.82222 12.26820 11 ft 20 kts 163°
2026-05-07 15:16 41.82085 12.26879 11 ft 21 kts 162°
2026-05-07 15:16 41.81947 12.26938 12 ft 21 kts 162°
2026-05-07 15:16 41.81814 12.26989 14 ft 20 kts 165°
2026-05-07 15:16 41.81687 12.27036 17 ft 19 kts 164°
2026-05-07 15:17 41.81561 12.27091 19 ft 20 kts 161°
2026-05-07 15:17 41.81418 12.27158 18 ft 24 kts 161°
2026-05-07 15:17 41.81240 12.27235 14 ft 29 kts 162°
2026-05-07 15:17 41.81043 12.27315 13 ft 31 kts 163°
2026-05-07 15:18 41.80864 12.27343 13 ft 26 kts 189°
2026-05-07 15:18 41.80692 12.27285 14 ft 25 kts 213°
2026-05-07 15:18 41.80612 12.27072 13 ft 27 kts 251°
2026-05-07 15:18 41.80549 12.26832 14 ft 28 kts 249°
2026-05-07 15:19 41.80478 12.26580 14 ft 27 kts 250°
2026-05-07 15:19 41.80426 12.26391 15 ft 16 kts 249°
2026-05-07 15:19 41.80381 12.26235 14 ft 19 kts 249°
2026-05-07 15:19 41.80301 12.26087 13 ft 22 kts 207°
2026-05-07 15:20 41.80158 12.25999 17 ft 23 kts 205°
2026-05-07 15:20 41.80010 12.25907 17 ft 25 kts 205°
2026-05-07 15:20 41.79862 12.25815 18 ft 18 kts 212°
2026-05-07 15:20 41.79780 12.25752 19 ft 12 kts 205°
2026-05-07 15:21 41.79723 12.25717 20 ft 6 kts 205°
2026-05-07 15:21 41.79713 12.25690 19 ft 4 kts 268°
2026-05-07 15:21 41.79725 12.25642 18 ft 1 kts 291°
2026-05-07 15:21 41.79726 12.25638 18 ft 0 kts 291°